Regional Weather Roundup
Issued by NWS Burlington, VT

Home | Current Version | Previous Version | Text Only | Print | Product List | Glossary On
Versions: 1 2 3 4 5 6 7 8 9 10 11 12 13 14 15 16 17 18 19 20 21 22 23 24 25 26 27 28 29 30 31 32 33 34 35 36 37 38 39 40 41 42 43 44 45 46 47 48 49 50
000
ASUS41 KBTV 252230
RWRBTV
VERMONT REGIONAL WEATHER ROUNDUP
NATIONAL WEATHER SERVICE BURLINGTON VT
600 PM EDT WED MAY 25 2016

NOTE: "FAIR" INDICATES FEW OR NO CLOUDS BELOW 12,000 FEET WITH NO
SIGNIFICANT WEATHER AND/OR OBSTRUCTIONS TO VISIBILITY.

* THESE REPORTS ARE NOT UNDER NWS QUALITY CONTROL AND/OR DO NOT
  REPORT WEATHER SUCH AS PRECIPITATION AND FOG.

VTZ001>019-252300-
_____VERMONT_____


CITY           SKY/WX    TMP DP  RH WIND       PRES   REMARKS
BURLINGTON     FAIR      80  50  34 N13       29.95R
MONTPELIER     LGT RAIN  77  50  38 W8        29.99S
MORRISVILLE    PTSUNNY   77  49  37 NW10G20   29.97R
ST. JOHNSBURY*   N/A     77  51  40 MISG      29.92S
LYNDONVILLE*   PTSUNNY   73  50  44 NW6       29.99R
MIDDLEBURY*    FAIR      83  51  32 W3        29.94S
RUTLAND*       CLOUDY    78  53  41 W10G20    29.98R
SPRINGFIELD    FAIR      81  49  32 SW17G23   29.96R
HIGHGATE*      PTSUNNY   79  53  40 NW5       29.95S
NEWPORT*       FAIR      72  53  50 W5        29.98S
BENNINGTON     PTSUNNY   75  58  55 CALM      30.01F
SUTTON*          N/A     73 N/A N/A MISG        N/A
GALLUP MILLS*    N/A     72 N/A N/A MISG        N/A
UNION VILLAGE*   N/A     82 N/A N/A MISG        N/A
MT. MANSFIELD*   N/A     63 N/A N/A N25         N/A

_____LAKE CHAMPLAIN_____


CITY           SKY/WX    TMP DP  RH WIND       PRES   REMARKS
COLCHESTER RF*   N/A     75  52  43 NE15        N/A
DIAMOND ISL*     N/A     82  50  32 SW12G25     N/A

$$

NYZ007-026>031-035-052-083-087-252300-
_____NORTHERN NEW YORK_____


CITY           SKY/WX    TMP DP  RH WIND       PRES   REMARKS
PLATTSBURGH    CLOUDY    76  53  44 NE3       29.95R
SARANAC LAKE   MOSUNNY   76  47  35 VRB7      30.02R
MASSENA        SUNNY     80  56  43 NW9       29.99R
OGDENSBURG*    PTSUNNY   79  57  47 W5        30.00R
POTSDAM*       MOSUNNY   79  59  50 NW7       30.00R
STARK FALLS*     N/A     82 N/A N/A W7          N/A
WATERTOWN      SUNNY     74  50  42 SW7       30.01F
FT DRUM        MOSUNNY   75  52  43 NW6       30.02R
ALBANY         MOSUNNY   84  52  33 W12G17    29.99F
GLENS FALLS    SUNNY     84  53  34 W14       29.96F

$$
NHZ002-005-011-252300-
_____NEW HAMPSHIRE_____


CITY           SKY/WX    TMP DP  RH WIND       PRES   REMARKS
LEBANON        PTSUNNY   82  51  34 NW12      29.94R
KEENE          CLOUDY    81  52  36 W10G16    29.99S
MT WASHINGTON  PTSUNNY   52  43  71 W25         N/A
PLYMOUTH       PTSUNNY   81  47  31 W7G16     29.92S
WHITEFIELD     CLOUDY    76  52  43 VRB7      29.95R

$$

_____REGIONAL QUEBEC LOCATIONS_____


CITY           SKY/WX    TMP DP  RH WIND       PRES   REMARKS
MONTREAL       MOSUNNY   77  59  53 W9        29.95S
QUEBEC CITY    PTSUNNY   72  55  56 NW16G25   29.90R
SHERBROOKE     CLOUDY    70  54  56 NW7       29.95R

_____REGIONAL ONTARIO LOCATIONS_____


CITY           SKY/WX    TMP DP  RH WIND       PRES   REMARKS
OTTAWA         MOSUNNY   77  54  44 N14G20    30.00S

______KEY______
VSB  - VISIBILITY IN MILES
WCI  - WIND CHILL INDEX
HX   - HEAT INDEX
$$
NNNN




USA.gov is the U.S. government's official web portal to all federal, state and local government web resources and services.